Regional Weather Roundup
Issued by NWS

Home | Current Version | Previous Version | Graphics & Text | Print | Product List | Glossary On
Versions: 1 2 3 4 5 6 7 8 9 10 11 12 13 14 15 16 17 18 19 20 21 22 23 24 25 26 27 28 29 30 31 32 33 34 35 36 37 38 39 40 41 42 43 44 45 46 47 48 49 50
346
ASUS44 KMEG 190610
RWRTN
TENNESSEE HOURLY STATE WEATHER ROUNDUP
NATIONAL WEATHER SERVICE MEMPHIS TN
1200 AM CST SUN NOV 19 2017

TNZ002-004-019-021-049-052-054-088>092-190700-
WEST TENNESSEE

CITY           SKY/WX    TMP DP  RH WIND       PRES   REMARKS
MEMPHIS INTL   CLEAR     44  35  70 NW9       30.11R
NWS MEMPHIS      N/A     44 N/A N/A MISG        N/A
JACKSON        CLEAR     44  35  70 NW7       30.07R
DYERSBURG      CLEAR     43  35  73 W7        30.09R
COVINGTON      CLEAR     41  34  75 NW6       30.10R
UNION CITY     CLEAR     41  34  75 W5        30.06R
BOLIVAR        CLEAR     45  34  65 W6G15     30.07R
PARIS          PTCLDY    41  34  75 CALM      30.03R
HUNTINGDON     PTCLDY    43  36  75 NW5       30.04R
LEXINGTON      MOCLDY    45  36  70 NW8       30.04R
SELMER         CLEAR     45  37  76 VRB6G13   30.05R
SAVANNAH       CLOUDY    46  37  71 NW8       30.04R
$$

TNZ008-025-027-028-033-062-065-066-190700-
NORTH MIDDLE TENNESSEE

CITY           SKY/WX    TMP DP  RH WIND       PRES   REMARKS
NASHVILLE      CLOUDY    45  36  70 NW12      29.99R
PORTLAND       CLOUDY    43  37  81 NW6G14    29.96R
CLARKSVILLE    CLOUDY    43  33  68 NW10G21   30.00R
SMYRNA         CLOUDY    44  38  79 NW9       30.00R
COOKEVILLE     CLOUDY    41  37  87 NW12G18   29.95R
GALLATIN       CLOUDY    45  39  81 VRB6G14   30.00R
CROSSVILLE     CLOUDY    38  36  92 NW17G29   29.91R WCI  28
$$

TNZ061-075-076-078-094-096-097-190700-
SOUTH MIDDLE TENNESSEE

CITY           SKY/WX    TMP DP  RH WIND       PRES   REMARKS
FAYETTEVILLE   CLOUDY    45  37  76 NW9G16    29.98R
TULLAHOMA      CLOUDY    43  37  81 NW10G22   29.97R
WINCHESTER     CLOUDY    43  37  81 N10       29.98R
MCMINNVILLE    CLOUDY    41  37  87 NW8       29.97R
COLUMBIA       CLOUDY    45  37  76 NW5       29.99R
SHELBYVILLE    CLOUDY    43  39  87 NW9G17    29.99R
$$

TNZ017-018-042-046-047-190700-
NORTHEAST TENNESSEE

CITY           SKY/WX    TMP DP  RH WIND       PRES   REMARKS
TRI CITIES     CLOUDY    48  43  82 W25G38    29.74R
ELIZABETHTON   CLOUDY    52  46  82 W14G23    29.71R HAZE
$$

TNZ012-013-036-069-073-074-190700-
CENTRAL EAST TENNESSEE

CITY           SKY/WX    TMP DP  RH WIND       PRES   REMARKS
KNOXVILLE      CLOUDY    46  42  86 W14G23    29.87R
OAK RIDGE      CLOUDY    45  41  86 VRB5      29.89R
DOWNTOWN KNOXV CLOUDY    48  39  71 W9G21     29.87R
GATLINBURG     CLOUDY    48  41  76 W13G23    29.85R
MORRISTOWN     CLOUDY    46  39  76 NW17G24   29.83R
$$

TNZ083-085-099-190700-
SOUTHEAST TENNESSEE

CITY           SKY/WX    TMP DP  RH WIND       PRES   REMARKS
CHATTANOOGA    CLOUDY    47  38  71 NW15G21   29.93R
$$

SKY/WX REPORTED AS FAIR MEANS FEW OR NO CLOUDS BELOW
12 THOUSAND FEET.





USA.gov is the U.S. government's official web portal to all federal, state and local government web resources and services.